This is the latest recevied weather packets stored in our database for station/object DK4ARL. If no packets are shown the sender has not sent any weather packets the latest 1 day(s).
| Time | Temp. | Humidity | Pressure | Rain* | Wind** | Luminosity | Snow |
|---|---|---|---|---|---|---|---|
| 1778095099 | 12.78° C | - | 971.2 hPa | 0 mm | - | - | - |
| 1778087122 | 12.78° C | - | 970.4 hPa | 0 mm | - | - | - |
| 1778081772 | 13.89° C | - | 969.8 hPa | 0 mm | - | - | - |
| 1778076387 | 18.33° C | - | 969 hPa | 0 mm | - | - | - |
| 1778070950 | 21.67° C | - | 969.1 hPa | 0 mm | - | - | - |
| 1778070040 | 20.56° C | - | 969.2 hPa | 0 mm | - | - | - |
| 1778069128 | 21.11° C | - | 969.2 hPa | 0 mm | - | - | - |
| 1778066385 | 22.22° C | - | 969.5 hPa | 0 mm | - | - | - |
| 1778058202 | 21.11° C | - | 970.1 hPa | 0 mm | - | - | - |
| 1778056399 | 20.56° C | - | 970.1 hPa | 0 mm | - | - | - |
| 1778055501 | 16.67° C | - | 970.1 hPa | 0 mm | - | - | - |
| 1778054606 | 17.22° C | - | 970.1 hPa | 0 mm | - | - | - |
| 1778052821 | 18.33° C | - | 970.1 hPa | 0 mm | - | - | - |
| 1778045763 | 11.11° C | - | 970.4 hPa | 0 mm | - | - | - |
| 1778044887 | 10.56° C | - | 970.4 hPa | 0 mm | - | - | - |
| 1778043133 | 9.44° C | - | 970.5 hPa | 0 mm | - | - | - |
| 1778042260 | 9.44° C | - | 970.5 hPa | 0 mm | - | - | - |
| 1778041379 | 9.44° C | - | 970.5 hPa | 0 mm | - | - | - |
| 1778040512 | 9.44° C | - | 970.6 hPa | 0 mm | - | - | - |
| 1778038758 | 10° C | - | 970.6 hPa | 0 mm | - | - | - |
| 1778037884 | 9.44° C | - | 970.7 hPa | 0 mm | - | - | - |
| 1778036127 | 9.44° C | - | 970.9 hPa | 0 mm | - | - | - |
| 1778034370 | 10° C | - | 971.1 hPa | 0 mm | - | - | - |
| 1778033492 | 10.56° C | - | 971.1 hPa | 0 mm | - | - | - |
| 1778031734 | 10° C | - | 971.1 hPa | 0 mm | - | - | - |
* Rain latest hour (hover to see other rain measurements)
** Current wind speed in m/s (hover to see current wind gust speed)